Theta_e
312 310 309 311 312 313 313 313 313 314 314 313 313 313 314 315 316 319 320 321 321 324 325 327 329 329 330 331 330 332 331 331 331 332 331 330 329 330 333 332 331 329 329 335
310 309 312 312 312 312 312 312 312 313 313 313 313 313 314 314 314 316 317 320 321 323 325 325 326 327 330 331 331 331 332 331 331 331 331 329 328 328 331 330 326 327 334 340
309 311 312 311 310 311 310 311 311 312 313 313 312 312 313 313 314 315 316 318 321 322 323 324 324 327 329 329 331 334 332 331 330 329 329 328 327 326 326 327 336 335 340 343
310 310 311 311 311 312 313 313 313 314 313 312 313 312 312 313 313 314 315 317 319 321 321 322 324 324 326 331 331 331 330 329 328 327 327 327 326 324 321 325 334 342 342 344
309 310 311 312 314 314 314 314 313 313 312 312 312 312 312 312 313 313 313 315 316 319 321 321 323 325 326 327 331 331 329 328 327 327 327 326 326 326 324 333 330 345 344 345
309 311 312 313 313 313 313 313 312 312 312 312 311 313 313 313 313 313 314 315 316 317 320 322 321 323 324 325 327 326 326 326 326 325 325 325 325 328 332 337 338 343 346 347
310 310 313 314 314 313 312 310 312 312 313 314 312 311 312 312 313 314 314 315 316 316 317 318 322 322 323 324 325 324 324 324 325 326 325 325 326 329 330 339 345 344 345 347
309 310 310 315 313 311 312 313 316 316 314 312 314 315 312 312 313 316 316 316 316 316 316 318 322 323 322 323 323 324 324 326 325 325 326 326 326 329 329 337 343 344 343 343
310 311 311 311 310 310 311 313 311 315 314 318 315 313 313 315 315 315 315 315 315 316 317 319 321 323 324 324 325 325 324 323 323 324 326 329 329 329 330 338 343 346 345 346
312 313 312 311 311 311 310 311 312 312 316 316 312 312 315 316 316 314 314 314 315 318 320 320 322 326 326 327 327 327 324 323 324 326 326 328 336 336 332 332 346 347 345 340
310 312 313 311 311 310 311 311 315 314 316 317 316 314 317 315 314 314 313 313 314 317 320 321 324 324 324 326 328 329 329 326 326 328 335 336 335 337 346 350 349 345 343 343
313 313 313 312 311 311 314 314 312 316 316 317 316 313 315 313 313 312 313 313 314 316 321 321 319 332 335 337 334 332 329 330 334 339 343 343 343 346 351 348 345 343 344 344
313 311 313 311 309 312 312 312 312 312 312 314 314 313 315 314 314 313 313 313 314 319 320 318 316 329 337 333 339 335 335 342 345 344 344 346 348 349 348 348 346 345 344 341
312 312 312 313 313 312 312 312 311 311 312 312 312 313 313 315 314 314 314 314 315 316 316 316 318 324 334 338 341 341 343 344 342 345 346 346 349 348 348 344 344 343 338 335
311 314 313 313 313 313 313 312 311 311 310 311 311 312 313 314 315 313 314 314 313 314 314 314 321 334 337 340 338 342 342 343 344 345 347 348 344 343 341 340 338 336 336 336
312 315 314 315 314 313 313 313 311 311 314 315 315 313 314 315 314 313 312 313 313 314 314 315 325 335 338 340 343 342 340 343 344 344 344 342 341 341 338 336 336 333 333 332
313 314 313 312 312 313 314 313 313 314 314 315 315 314 313 314 315 314 314 313 315 317 317 320 329 334 336 337 342 340 341 342 342 341 341 340 339 338 335 333 333 333 333 331
312 313 313 313 312 315 313 314 314 313 313 313 316 315 315 315 315 316 317 318 320 322 321 326 329 330 325 333 340 340 341 341 339 338 339 338 336 333 332 333 333 333 330 330
312 312 314 314 310 313 314 314 312 312 311 313 313 312 312 313 313 316 319 317 318 320 326 326 328 330 322 329 339 339 340 339 338 337 335 334 333 331 331 331 331 330 329 330
312 312 313 312 314 315 316 313 312 310 314 312 310 310 311 310 313 314 314 314 317 318 323 324 326 329 326 328 337 338 337 335 333 333 334 334 331 331 330 330 330 329 330 331
315 313 313 313 314 313 313 311 311 312 313 310 310 310 309 310 309 310 311 312 315 316 321 327 326 328 327 333 335 334 333 332 333 333 332 331 330 330 331 330 330 330 330 329
315 314 312 312 316 314 311 311 312 311 311 311 311 310 310 309 310 310 311 311 313 317 319 325 326 330 330 334 333 333 333 333 333 331 330 330 331 330 330 330 329 330 329 330
310 312 314 313 311 313 311 311 311 311 310 310 310 310 309 309 310 310 311 312 313 318 319 327 326 329 336 335 332 333 333 333 331 330 332 331 329 329 328 329 329 330 331 331
311 312 314 313 313 313 313 312 309 308 309 308 308 308 308 309 310 313 315 316 314 316 321 325 329 334 336 334 332 334 332 331 332 332 331 330 330 329 328 329 330 330 330 331
310 312 313 313 313 311 311 309 308 307 307 306 306 307 309 311 313 316 318 321 320 319 321 327 330 329 335 335 334 333 334 334 333 331 330 331 332 331 330 331 330 330 330 330
312 314 314 315 312 310 308 306 306 306 306 307 307 308 310 312 314 316 320 323 322 324 330 329 328 326 332 335 334 334 333 333 331 329 331 330 329 330 331 331 330 330 331 330
Wind_Speed
11 5 5 10 9 9 11 13 12 14 13 14 12 19 18 17 23 22 33 36 35 39 45 45 35 40 37 36 37 34 34 34 33 29 30 33 33 32 31 32 33 32 32 33
6 6 7 10 11 10 11 14 12 13 10 15 13 22 18 15 17 24 24 31 37 37 38 37 42 45 36 34 48 46 41 38 35 33 28 28 31 35 36 37 33 28 28 30
6 10 13 13 11 11 11 11 12 17 15 14 10 19 23 21 20 27 32 28 25 31 37 43 43 35 29 43 35 40 39 38 37 33 28 30 31 35 36 33 25 30 30 29
5 8 10 8 9 8 7 15 15 16 14 9 4 17 16 17 20 15 23 27 29 30 31 28 46 41 41 29 31 32 32 32 33 31 31 31 31 35 35 32 29 29 31 30
7 12 11 6 7 11 8 13 17 15 15 14 14 10 15 8 15 13 13 28 34 33 35 33 33 31 29 28 28 29 30 30 31 32 34 34 34 33 34 26 29 29 30 30
13 23 2 3 6 9 11 6 11 5 5 12 17 12 20 13 17 17 13 30 34 36 37 37 36 34 28 33 32 29 31 33 34 35 35 36 37 31 30 24 28 31 31 28
5 5 5 4 1 4 4 6 4 4 2 9 13 13 19 14 18 15 13 20 32 35 36 41 44 44 45 39 36 38 37 38 37 35 36 38 38 31 29 30 32 32 32 29
2 7 7 3 6 7 3 1 4 4 6 13 15 10 8 11 9 26 32 30 32 34 37 38 26 40 50 43 41 41 38 36 33 36 40 40 38 35 30 36 34 34 29 27
5 5 11 14 12 11 4 5 13 11 13 7 5 8 14 13 17 18 27 36 40 46 42 45 34 18 24 22 34 39 38 36 37 34 31 33 35 32 34 33 32 30 22 20
6 13 6 11 12 10 8 5 7 3 4 5 4 14 4 12 17 18 20 27 42 47 38 39 18 17 12 14 15 19 34 38 36 28 26 27 31 32 32 33 30 24 20 17
7 2 7 8 3 12 11 3 3 2 4 2 4 2 2 5 7 12 15 28 39 43 38 29 14 15 21 21 18 21 24 30 28 25 22 22 26 28 28 27 23 20 21 19
4 3 5 15 16 9 4 5 3 2 3 3 6 7 4 5 1 6 13 25 36 38 27 30 40 15 13 14 18 25 28 28 25 21 18 19 24 29 28 23 24 22 21 18
2 3 6 6 6 3 2 5 6 6 12 14 9 6 10 5 0 9 13 21 33 23 29 38 48 28 21 25 19 29 28 27 23 19 23 26 28 27 28 28 26 26 24 22
5 6 7 8 14 13 18 18 19 12 4 13 10 14 19 5 1 5 17 24 24 26 33 41 39 27 23 33 25 27 27 24 23 26 27 28 31 30 30 29 33 28 24 22
5 4 8 14 18 19 20 22 21 18 14 15 19 17 1 5 7 2 10 24 21 30 50 44 44 20 22 28 29 30 27 30 28 30 33 32 28 25 25 24 23 26 24 21
3 4 6 20 22 21 22 21 19 18 8 14 16 13 6 10 13 10 17 31 27 37 46 47 21 12 15 24 36 41 34 33 34 29 28 27 28 26 24 23 21 20 21 20
6 3 3 7 12 15 10 9 6 9 10 10 10 10 8 11 5 9 20 30 26 35 34 28 15 14 20 24 31 39 38 36 35 35 32 31 27 24 21 22 23 22 20 19
7 5 2 5 10 3 2 15 15 10 11 13 10 14 15 13 22 24 28 24 26 37 33 17 20 18 17 20 36 35 37 38 33 31 31 26 23 22 23 23 21 20 18 17
5 4 2 3 2 12 6 5 6 6 12 4 10 14 19 28 29 20 12 29 34 38 20 16 19 18 34 22 37 41 41 38 35 31 27 26 27 23 23 22 20 19 18 17
8 4 3 1 3 4 1 5 9 7 4 8 12 14 16 21 9 12 37 43 36 37 34 20 18 18 13 19 28 40 36 33 30 32 32 31 22 24 22 20 18 18 16 14
3 3 5 7 6 6 4 8 5 2 3 20 18 21 19 12 16 35 43 43 37 39 31 25 23 16 23 25 35 34 32 31 32 31 27 22 19 18 22 19 19 15 14 16
3 2 3 2 3 6 6 3 2 7 26 14 16 26 20 25 27 29 40 44 41 37 34 27 24 17 25 27 33 33 32 31 35 30 23 21 21 16 22 21 17 14 18 19
4 3 3 5 5 0 6 6 16 18 22 24 22 19 26 28 29 35 40 42 38 33 33 26 27 22 26 26 34 29 40 36 31 26 25 23 20 18 20 19 17 18 17 19
5 12 4 9 6 8 8 10 12 20 25 31 26 29 27 30 33 33 34 35 32 31 28 28 25 11 20 24 26 36 33 30 29 25 26 23 21 22 18 13 16 17 17 18
12 10 4 8 7 12 5 13 20 25 26 28 26 27 28 29 29 28 29 31 29 28 31 20 11 21 20 20 30 32 30 30 26 26 26 25 23 19 18 16 16 15 16 16
2 2 3 3 2 6 10 23 23 23 25 27 27 29 25 22 25 26 27 22 25 27 18 10 19 30 24 32 33 30 28 25 27 24 28 22 18 18 16 13 16 15 15 16
Wind_Direction
303 5 276 257 264 264 288 292 293 306 324 322 299 291 294 300 298 274 241 243 245 251 252 258 262 256 254 253 246 240 240 243 241 229 229 245 247 255 253 255 262 266 265 254
311 249 257 330 328 329 323 315 309 309 321 305 311 296 297 294 291 296 285 256 239 240 245 248 256 259 252 256 247 239 232 234 239 243 241 235 251 256 259 263 266 260 258 251
324 309 332 325 316 317 296 294 302 291 290 269 294 286 291 291 280 285 288 284 280 249 244 244 246 252 260 252 251 229 219 221 231 244 244 243 252 254 254 255 249 246 245 249
289 269 284 297 302 344 344 336 324 325 332 299 273 281 278 292 295 297 293 293 283 275 276 278 252 246 249 245 227 220 225 232 240 246 249 250 255 257 254 250 248 239 238 244
263 288 284 304 16 357 303 319 310 305 296 303 292 277 281 288 281 282 286 287 289 286 278 269 267 248 245 243 229 225 225 227 236 245 255 261 262 262 260 255 242 231 234 239
239 266 357 57 7 322 333 325 315 310 296 271 272 268 277 268 276 280 280 286 289 289 289 268 261 262 259 246 237 236 241 246 250 255 257 259 261 251 248 241 232 226 230 233
309 339 119 97 320 276 319 359 315 309 273 263 266 256 251 266 262 283 295 297 291 281 286 286 264 251 245 252 248 251 255 259 253 249 255 256 253 245 242 228 230 228 230 235
9 326 322 157 200 237 209 200 266 282 277 283 303 282 264 288 259 17 2 334 309 295 284 283 264 251 245 245 244 247 249 241 243 249 250 249 247 240 230 226 234 237 243 244
313 289 329 318 323 318 288 227 248 283 274 275 244 273 281 5 5 1 355 344 336 322 315 285 257 250 223 231 239 234 234 244 240 239 238 235 235 229 223 226 234 239 237 232
334 310 304 317 333 302 259 254 305 288 268 265 295 300 301 359 349 353 349 339 330 323 321 284 254 246 252 229 225 231 236 230 233 230 227 231 226 220 231 226 226 221 230 196
349 252 305 321 261 290 308 346 35 154 285 293 298 277 329 24 346 343 327 333 324 312 309 327 230 235 244 250 234 230 223 216 207 209 222 222 219 218 211 210 208 206 185 174
46 275 285 285 284 294 78 126 139 277 272 222 262 269 229 153 3 278 325 332 311 307 306 321 329 260 247 218 227 229 202 193 201 207 213 205 196 192 191 191 185 181 175 169
104 318 311 294 296 37 121 254 245 232 268 270 273 269 218 177 18 333 311 324 305 310 303 313 323 289 273 242 186 182 184 181 183 186 187 183 183 183 186 183 181 178 174 163
234 191 218 256 272 285 286 281 279 234 240 263 262 282 276 194 21 286 356 329 323 320 312 300 305 285 251 246 198 187 175 182 176 176 176 173 170 176 179 179 170 167 158 157
131 258 263 266 271 278 281 291 282 280 266 276 272 277 304 206 192 172 347 306 317 300 280 286 266 251 243 229 207 190 178 177 173 172 168 163 168 173 162 156 155 154 159 166
78 275 308 283 272 271 278 280 274 286 340 335 312 311 358 338 161 206 234 269 268 263 270 277 313 298 272 225 195 183 172 172 169 169 164 162 167 164 155 152 153 154 159 165
177 222 298 278 302 310 289 286 332 341 345 342 318 301 333 329 327 252 259 254 294 307 302 321 338 327 268 206 179 160 165 164 160 156 155 157 159 157 156 154 155 159 166 172
157 164 218 278 306 258 244 40 51 5 354 334 340 345 343 334 319 307 302 309 333 323 315 339 343 338 309 191 182 152 155 148 147 151 153 154 157 156 154 157 160 165 171 179
125 131 220 265 256 273 298 21 8 4 313 351 354 340 329 329 324 294 321 334 329 325 332 356 356 327 312 279 159 155 145 147 147 149 153 156 150 155 160 163 166 170 179 173
129 166 191 327 281 268 118 279 329 321 242 29 345 320 313 317 301 290 321 320 316 322 327 330 338 335 279 279 156 144 144 148 147 154 159 161 158 160 167 169 174 176 178 186
200 229 219 250 257 269 217 259 312 12 200 333 322 302 303 295 284 295 305 302 298 308 317 320 343 336 268 235 151 146 148 151 156 161 154 155 161 164 173 171 179 174 175 177
201 228 232 231 250 269 216 311 232 298 301 298 287 294 294 294 291 294 293 293 296 299 313 317 336 339 235 179 153 157 159 156 156 149 149 153 161 156 167 176 169 167 172 173
312 159 229 210 227 177 176 225 295 304 307 309 302 299 303 293 291 287 284 288 288 293 312 322 327 306 190 160 156 158 144 148 146 147 146 148 160 158 165 170 170 171 177 178
304 298 277 302 263 265 273 292 309 309 302 304 296 299 296 291 291 291 292 290 281 297 308 322 325 229 173 151 158 145 145 143 144 142 143 149 148 153 152 168 181 185 186 186
275 290 280 260 286 328 283 306 308 302 302 301 304 298 297 298 292 293 293 287 289 291 300 304 250 206 167 152 149 148 142 144 143 142 144 152 151 156 164 171 176 185 189 193
205 206 268 290 346 258 299 314 315 310 304 311 308 311 309 302 297 294 298 297 288 291 288 272 182 210 208 154 150 151 155 153 145 146 151 147 151 167 175 183 183 190 190 185